Location: Berkeley
(37.8716°N, 122.2727°W)
Time: 01:40:01
(UTC-07:00)

Tiangong 1 - Visible Passes

Search period start: 27 June 2017 00:00
Search period end: 07 July 2017 00:00
Orbit: 321 x 344 km, 42.8° (Epoch: 26 June)

Date Brightness Start Highest point End Pass type
(mag) Time Alt. Az. Time Alt. Az. Time Alt. Az.
27 Jun 2.6 21:57:51 10° WNW 22:00:22 29° N 22:02:40 11° ENE visible
27 Jun 3.9 23:33:24 10° WNW 23:33:48 13° WNW 23:33:48 13° WNW visible
28 Jun 1.9 22:17:07 10° WNW 22:19:47 39° NNE 22:20:44 28° ENE visible
29 Jun 1.1 22:36:16 10° WNW 22:38:44 63° NW 22:38:44 63° NW visible
30 Jun 1.9 21:19:54 10° WNW 21:22:35 38° NNE 21:25:14 10° E visible
30 Jun 3.0 22:55:30 10° W 22:56:43 21° W 22:56:43 21° W visible
01 Jul 0.8 21:38:57 10° WNW 21:41:47 75° NNE 21:43:33 20° ESE visible
02 Jul 1.4 21:58:06 10° WNW 22:00:46 42° SSW 22:01:29 33° SSE visible
03 Jul 3.0 22:17:44 10° WSW 22:19:25 16° SW 22:19:25 16° SW visible
05 Jul 3.0 21:20:01 10° W 21:21:57 17° SW 21:23:52 10° S visible
